When you browse on this site, cookies collect data to enhance your experience and personalize the content and advertising you see.
Visit our Privacy Policy to learn more. By continuing to use the site, you agree to this use of cookies and data.
EN

Hourly Weather Solwezi

Today, 13 August, Thursday

Time Temperature Precipitation Wind Pressure Humidity
00:00 +28°C° 1.2 mm 2 mps 712 mmHg 73%
01:00 +27°C° 1.2 mm 2 mps 712 mmHg 76%
02:00 +27°C° 0 mm 2 mps 712 mmHg 80%
03:00 +27°C° 0.2 mm 1 mps 712 mmHg 81%
04:00 +26°C° 0.2 mm 1 mps 712 mmHg 82%
05:00 +26°C° 0.2 mm 1 mps 712 mmHg 84%
06:00 +27°C° 0.5 mm 2 mps 712 mmHg 81%
07:00 +27°C° 0.5 mm 4 mps 713 mmHg 78%
08:00 +28°C° 0 mm 4 mps 713 mmHg 76%
09:00 +29°C° 0.3 mm 4 mps 713 mmHg 69%
10:00 +30°C° 0.3 mm 4 mps 713 mmHg 61%
11:00 +33°C° 0.3 mm 4 mps 713 mmHg 54%
12:00 +34°C° 0 mm 4 mps 713 mmHg 50%
13:00 +34°C° 0 mm 4 mps 713 mmHg 47%
14:00 +35°C° 0 mm 4 mps 712 mmHg 43%
15:00 +35°C° 0 mm 5 mps 712 mmHg 45%
16:00 +35°C° 0 mm 5 mps 711 mmHg 47%
17:00 +34°C° 0 mm 6 mps 711 mmHg 48%
18:00 +33°C° 0 mm 6 mps 711 mmHg 55%
19:00 +30°C° 0 mm 6 mps 711 mmHg 61%
20:00 +28°C° 0 mm 6 mps 712 mmHg 67%
21:00 +28°C° 0 mm 5 mps 712 mmHg 68%
22:00 +28°C° 0 mm 4 mps 712 mmHg 68%
23:00 +28°C° 0 mm 3 mps 713 mmHg 69%

Tomorrow, 14 August, Friday

Time Temperature Precipitation Wind Pressure Humidity
00:00 +28°C° 0 mm 3 mps 712 mmHg 70%
01:00 +27°C° 0 mm 3 mps 712 mmHg 72%
02:00 +27°C° 0 mm 2 mps 712 mmHg 74%
03:00 +27°C° 0 mm 2 mps 712 mmHg 75%
04:00 +27°C° 0 mm 3 mps 712 mmHg 76%
05:00 +27°C° 0 mm 3 mps 712 mmHg 78%
06:00 +27°C° 0 mm 3 mps 712 mmHg 75%
07:00 +27°C° 0 mm 3 mps 713 mmHg 73%
08:00 +28°C° 0 mm 3 mps 713 mmHg 70%
09:00 +29°C° 0 mm 4 mps 713 mmHg 64%
10:00 +32°C° 0 mm 4 mps 713 mmHg 58%
11:00 +33°C° 0 mm 4 mps 713 mmHg 52%
12:00 +34°C° 0 mm 4 mps 712 mmHg 49%
13:00 +35°C° 0 mm 4 mps 712 mmHg 45%
14:00 +36°C° 0 mm 3 mps 711 mmHg 42%
15:00 +36°C° 0 mm 3 mps 710 mmHg 42%
16:00 +36°C° 0 mm 3 mps 710 mmHg 41%
17:00 +36°C° 0 mm 3 mps 709 mmHg 41%
18:00 +35°C° 0 mm 3 mps 710 mmHg 43%
19:00 +35°C° 0 mm 3 mps 710 mmHg 44%
20:00 +34°C° 0 mm 3 mps 710 mmHg 46%
21:00 +34°C° 0 mm 3 mps 711 mmHg 48%
22:00 +33°C° 0 mm 4 mps 711 mmHg 49%
23:00 +33°C° 0 mm 4 mps 711 mmHg 51%

Day after tomorrow, 15 August, Saturday

Time Temperature Precipitation Wind Pressure Humidity
00:00 +32°C° 0 mm 4 mps 711 mmHg 54%
01:00 +30°C° 0 mm 4 mps 711 mmHg 56%
02:00 +30°C° 0 mm 5 mps 710 mmHg 59%
03:00 +29°C° 0 mm 4 mps 710 mmHg 61%
04:00 +29°C° 0 mm 4 mps 710 mmHg 63%
05:00 +28°C° 0 mm 4 mps 710 mmHg 66%
06:00 +29°C° 0 mm 4 mps 711 mmHg 65%
07:00 +29°C° 0 mm 4 mps 711 mmHg 64%
08:00 +30°C° 0 mm 5 mps 712 mmHg 64%
09:00 +32°C° 0 mm 5 mps 712 mmHg 58%
10:00 +34°C° 0 mm 5 mps 712 mmHg 52%
11:00 +35°C° 0 mm 4 mps 712 mmHg 46%
12:00 +36°C° 0 mm 3 mps 711 mmHg 42%
13:00 +37°C° 0 mm 2 mps 710 mmHg 39%
14:00 +37°C° 0 mm 1 mps 710 mmHg 36%
15:00 +38°C° 0 mm 2 mps 709 mmHg 35%
16:00 +38°C° 0 mm 2 mps 709 mmHg 34%
17:00 +38°C° 0 mm 2 mps 708 mmHg 33%
18:00 +37°C° 0 mm 3 mps 708 mmHg 37%
19:00 +36°C° 0 mm 4 mps 709 mmHg 40%
20:00 +35°C° 0 mm 5 mps 709 mmHg 44%
21:00 +34°C° 0 mm 6 mps 709 mmHg 48%
22:00 +33°C° 0 mm 6 mps 710 mmHg 53%
23:00 +33°C° 0 mm 6 mps 710 mmHg 57%

16 August, Sunday

Time Temperature Precipitation Wind Pressure Humidity
00:00 +32°C° 1.4 mm 6 mps 710 mmHg 60%
01:00 +30°C° 1.4 mm 5 mps 710 mmHg 64%
02:00 +29°C° 1.4 mm 4 mps 710 mmHg 68%
03:00 +28°C° 2.9 mm 5 mps 710 mmHg 74%
04:00 +27°C° 2.9 mm 7 mps 710 mmHg 81%
05:00 +26°C° 2.9 mm 8 mps 710 mmHg 88%
06:00 +26°C° 1.3 mm 6 mps 710 mmHg 86%
07:00 +26°C° 1.3 mm 4 mps 711 mmHg 84%
08:00 +26°C° 1.3 mm 2 mps 712 mmHg 82%
09:00 +26°C° 0 mm 2 mps 712 mmHg 79%
10:00 +27°C° 0 mm 3 mps 712 mmHg 75%
11:00 +27°C° 0 mm 3 mps 712 mmHg 71%
12:00 +29°C° 0 mm 2 mps 711 mmHg 65%
13:00 +30°C° 0 mm 1 mps 711 mmHg 59%
14:00 +31°C° 0 mm 1 mps 710 mmHg 52%
15:00 +31°C° 0 mm 1 mps 710 mmHg 51%
16:00 +31°C° 0 mm 1 mps 709 mmHg 50%
17:00 +32°C° 0 mm 1 mps 709 mmHg 48%
18:00 +31°C° 0 mm 1 mps 710 mmHg 52%
19:00 +30°C° 0 mm 1 mps 710 mmHg 55%
20:00 +29°C° 0 mm 1 mps 710 mmHg 59%
21:00 +29°C° 0 mm 2 mps 711 mmHg 61%
22:00 +28°C° 0 mm 2 mps 711 mmHg 63%
23:00 +28°C° 0 mm 2 mps 711 mmHg 64%

17 August, Monday

Time Temperature Precipitation Wind Pressure Humidity
00:00 +28°C° 0 mm 2 mps 711 mmHg 66%
01:00 +28°C° 0 mm 2 mps 711 mmHg 67%
02:00 +27°C° 0 mm 2 mps 711 mmHg 68%
03:00 +27°C° 0 mm 2 mps 711 mmHg 69%
04:00 +27°C° 0 mm 2 mps 711 mmHg 69%
05:00 +27°C° 0 mm 3 mps 711 mmHg 69%
06:00 +27°C° 0 mm 4 mps 711 mmHg 71%
07:00 +27°C° 0 mm 4 mps 712 mmHg 72%
08:00 +27°C° 0 mm 5 mps 712 mmHg 74%
09:00 +28°C° 0 mm 5 mps 712 mmHg 72%
10:00 +28°C° 0 mm 6 mps 713 mmHg 70%
11:00 +29°C° 0 mm 6 mps 713 mmHg 68%
12:00 +29°C° 0 mm 5 mps 712 mmHg 64%
13:00 +30°C° 0 mm 5 mps 711 mmHg 61%
14:00 +32°C° 0 mm 4 mps 711 mmHg 57%
15:00 +32°C° 0 mm 4 mps 710 mmHg 54%
16:00 +33°C° 0 mm 3 mps 710 mmHg 51%
17:00 +34°C° 0 mm 3 mps 710 mmHg 49%
18:00 +33°C° 0 mm 3 mps 710 mmHg 52%
19:00 +31°C° 0 mm 3 mps 710 mmHg 55%
20:00 +30°C° 0 mm 3 mps 711 mmHg 58%
21:00 +30°C° 0 mm 2 mps 711 mmHg 61%
22:00 +29°C° 0 mm 2 mps 712 mmHg 64%
23:00 +29°C° 0 mm 2 mps 712 mmHg 67%

18 August, Tuesday

Time Temperature Precipitation Wind Pressure Humidity
00:00 +28°C° 0 mm 3 mps 712 mmHg 68%
01:00 +28°C° 0 mm 3 mps 712 mmHg 70%
02:00 +27°C° 0 mm 3 mps 711 mmHg 71%
03:00 +27°C° 0 mm 3 mps 711 mmHg 73%
04:00 +26°C° 0 mm 3 mps 711 mmHg 75%
05:00 +26°C° 0 mm 4 mps 711 mmHg 77%
06:00 +27°C° 0 mm 4 mps 712 mmHg 75%
07:00 +27°C° 0 mm 4 mps 712 mmHg 72%
08:00 +27°C° 0 mm 4 mps 712 mmHg 70%
09:00 +29°C° 0 mm 4 mps 713 mmHg 63%
10:00 +32°C° 0 mm 4 mps 713 mmHg 55%
11:00 +33°C° 0 mm 5 mps 713 mmHg 47%
12:00 +34°C° 0 mm 4 mps 712 mmHg 46%
13:00 +35°C° 0 mm 4 mps 712 mmHg 45%
14:00 +35°C° 0 mm 4 mps 711 mmHg 44%
15:00 +35°C° 0 mm 4 mps 711 mmHg 46%
16:00 +34°C° 0 mm 4 mps 710 mmHg 47%
17:00 +34°C° 0 mm 4 mps 710 mmHg 49%
18:00 +33°C° 0.3 mm 4 mps 710 mmHg 53%
19:00 +31°C° 0.3 mm 3 mps 710 mmHg 57%
20:00 +30°C° 0.3 mm 3 mps 710 mmHg 61%
21:00 +29°C° 2.2 mm 4 mps 711 mmHg 65%
22:00 +29°C° 2.2 mm 5 mps 711 mmHg 68%
23:00 +28°C° 2.2 mm 6 mps 711 mmHg 72%
Show more